K5NCO Weather Reports


Display with metric or nautical units.
time (UTC)temp
F
wind
direction
speed
MPH
gust
MPH
rain 1hr
in
rain 24hr
in
rain mn
in
humidity
%
barometer
mb
20260505065946 71 161 13.0 15.0 0.00 0.00 0.00 88 1010.3
20260505065443 71 161 7.0 9.0 0.00 0.00 0.00 88 1010.3
20260505064940 71 176 11.0 13.0 0.00 0.00 0.00 88 1010.3
20260505064437 71 202 4.0 6.0 0.00 0.00 0.00 88 1010.5
20260505063935 71 179 12.0 14.0 0.00 0.00 0.00 88 1010.5
20260505063431 71 222 13.0 17.0 0.00 0.00 0.00 88 1010.6
20260505062928 71 167 11.0 16.0 0.00 0.00 0.00 88 1010.7
20260505062425 71 158 6.0 8.0 0.00 0.00 0.00 88 1010.9
20260505061921 71 195 10.0 14.0 0.00 0.00 0.00 88 1010.9
20260505061420 71 201 8.0 11.0 0.00 0.00 0.00 88 1010.7
20260505060917 71 176 10.0 14.0 0.00 0.00 0.00 87 1010.9
20260505060414 71 151 5.0 6.0 0.00 0.00 0.00 87 1010.7
20260505055910 71 150 12.0 16.0 0.00 0.00 0.00 87 1010.8
20260505055407 71 184 10.0 13.0 0.00 0.00 0.00 87 1010.8
20260505054903 71 174 10.0 11.0 0.00 0.00 0.00 87 1010.9
20260505054401 71 164 12.0 15.0 0.00 0.00 0.00 87 1010.9
20260505053859 71 157 7.0 8.0 0.00 0.00 0.00 87 1011.0
20260505053356 71 134 7.0 9.0 0.00 0.00 0.00 87 1010.7
20260505052852 71 191 11.0 16.0 0.00 0.00 0.00 87 1010.7
20260505052349 71 160 4.0 7.0 0.00 0.00 0.00 87 1010.9
20260505051846 71 135 6.0 8.0 0.00 0.00 0.00 87 1010.9
20260505051343 71 169 9.0 13.0 0.00 0.00 0.00 87 1010.9
20260505050842 71 185 10.0 13.0 0.00 0.00 0.00 87 1010.7
20260505050340 71 158 8.0 13.0 0.00 0.00 0.00 86 1010.7
20260505041307 73 168 6.0 8.0 0.00 0.00 0.00 83 1010.5
20260505040804 73 193 14.0 15.0 0.00 0.00 0.00 83 1010.8
20260505040302 73 126 7.0 10.0 0.00 0.00 0.00 83 1010.5
20260505035758 73 201 14.0 16.0 0.00 0.00 0.00 83 1010.9
20260505035254 73 112 12.0 17.0 0.00 0.00 0.00 82 1010.8
20260505034751 73 157 10.0 16.0 0.00 0.00 0.00 83 1010.8
20260505034248 74 183 6.0 9.0 0.00 0.00 0.00 82 1010.9
20260505033744 74 143 10.0 14.0 0.00 0.00 0.00 82 1010.7
20260505033242 74 133 5.0 7.0 0.00 0.00 0.00 82 1010.8
20260505032740 74 173 10.0 14.0 0.00 0.00 0.00 81 1010.4
20260505032236 74 154 6.0 8.0 0.00 0.00 0.00 81 1010.7
20260505031733 74 144 9.0 11.0 0.00 0.00 0.00 81 1010.6
20260505031229 74 132 11.0 15.0 0.00 0.00 0.00 80 1010.7
20260505030727 74 147 2.0 4.0 0.00 0.00 0.00 80 1010.7
20260505030223 74 186 3.0 3.0 0.00 0.00 0.00 80 1010.9
20260505025718 75 150 7.0 9.0 0.00 0.00 0.00 79 1010.7
20260505025217 75 180 6.0 8.0 0.00 0.00 0.00 79 1010.5
20260505024715 75 154 5.0 8.0 0.00 0.00 0.00 79 1010.7
20260505024212 75 153 10.0 11.0 0.00 0.00 0.00 78 1010.5
20260505023709 75 165 9.0 11.0 0.00 0.00 0.00 78 1010.9
20260505023206 75 170 9.0 10.0 0.00 0.00 0.00 77 1010.5
20260505022704 75 136 4.0 6.0 0.00 0.00 0.00 77 1010.5
20260505022200 76 185 6.0 8.0 0.00 0.00 0.00 76 1010.5
20260505021657 76 171 12.0 15.0 0.00 0.00 0.00 76 1010.5
20260505021154 76 170 8.0 11.0 0.00 0.00 0.00 75 1010.5
20260505020650 76 178 9.0 13.0 0.00 0.00 0.00 75 1010.5
20260505020145 76 132 6.0 9.0 0.00 0.00 0.00 74 1010.5
20260505015643 76 112 6.0 9.0 0.00 0.00 0.00 73 1010.4
20260505015139 76 173 9.0 11.0 0.00 0.00 0.00 73 1010.4
20260505014636 76 197 4.0 6.0 0.00 0.00 0.00 72 1010.5
20260505014133 77 175 3.0 4.0 0.00 0.00 0.00 72 1010.4
20260505013631 77 174 5.0 6.0 0.00 0.00 0.00 71 1010.5
20260505013128 77 144 4.0 6.0 0.00 0.00 0.00 70 1010.4
20260505012626 77 177 7.0 8.0 0.00 0.00 0.00 70 1010.4
20260505012123 78 131 3.0 4.0 0.00 0.00 0.00 69 1010.3
20260505011618 78 99 9.0 11.0 0.00 0.00 0.00 68 1010.3
20260505011116 78 155 9.0 13.0 0.00 0.00 0.00 68 1010.2
20260505010611 78 218 6.0 8.0 0.00 0.00 0.00 67 1010.1
20260505010108 78 180 6.0 8.0 0.00 0.00 0.00 67 1010.3
20260505005604 78 200 9.0 10.0 0.00 0.00 0.00 67 1010.3
20260505005101 78 151 6.0 9.0 0.00 0.00 0.00 67 1010.2
20260505004558 78 139 4.0 6.0 0.00 0.00 0.00 66 1010.1
20260505004055 79 167 8.0 14.0 0.00 0.00 0.00 65 1010.0
20260505003552 79 160 9.0 15.0 0.00 0.00 0.00 64 1010.1
20260505003050 79 170 9.0 13.0 0.00 0.00 0.00 64 1010.2
20260505002549 79 133 7.0 9.0 0.00 0.00 0.00 64 1010.0
20260505002044 79 158 9.0 16.0 0.00 0.00 0.00 64 1009.9
20260505001540 79 203 8.0 9.0 0.00 0.00 0.00 63 1010.0
20260505001038 79 166 11.0 16.0 0.00 0.00 0.00 64 1009.9
20260505000535 80 199 14.0 16.0 0.00 0.00 0.00 62 1009.8
20260505000033 80 143 11.0 15.0 0.00 0.00 0.00 62 1010.2
20260504235529 80 160 13.0 16.0 0.00 0.00 0.00 62 1010.3
20260504235026 80 193 10.0 11.0 0.00 0.00 0.00 62 1010.3
20260504234523 80 148 7.0 9.0 0.00 0.00 0.00 62 1010.3
20260504234020 80 89 8.0 10.0 0.00 0.00 0.00 63 1010.3
20260504233515 80 152 5.0 8.0 0.00 0.00 0.00 62 1010.3
20260504233012 80 170 8.0 10.0 0.00 0.00 0.00 62 1010.4
20260504232509 80 164 9.0 11.0 0.00 0.00 0.00 61 1010.4
20260504232007 81 190 12.0 14.0 0.00 0.00 0.00 62 1010.4
20260504231503 80 199 8.0 10.0 0.00 0.00 0.00 61 1010.4
20260504230959 81 171 12.0 14.0 0.00 0.00 0.00 63 1010.6
20260504230455 81 178 8.0 11.0 0.00 0.00 0.00 63 1010.6
20260504225955 80 171 14.0 18.0 0.00 0.00 0.00 62 1010.6
20260504225451 81 130 5.0 9.0 0.00 0.00 0.00 63 1010.8
20260504224948 81 131 11.0 15.0 0.00 0.00 0.00 63 1010.9
20260504224445 81 174 11.0 14.0 0.00 0.00 0.00 62 1011.0
20260504223942 81 224 6.0 9.0 0.00 0.00 0.00 62 1010.9
20260504223438 81 182 10.0 13.0 0.00 0.00 0.00 61 1010.9
20260504222933 81 217 9.0 11.0 0.00 0.00 0.00 61 1010.6
20260504222432 81 187 12.0 17.0 0.00 0.00 0.00 62 1011.1
20260504221929 81 165 16.0 21.0 0.00 0.00 0.00 61 1011.0
20260504221426 81 127 8.0 14.0 0.00 0.00 0.00 62 1011.1
20260504220923 81 194 8.0 10.0 0.00 0.00 0.00 62 1011.1
20260504220419 81 128 4.0 6.0 0.00 0.00 0.00 63 1010.9
20260504215916 81 196 8.0 9.0 0.00 0.00 0.00 63 1011.0
20260504215413 82 187 11.0 15.0 0.00 0.00 0.00 61 1011.1
20260504214909 81 196 9.0 13.0 0.00 0.00 0.00 62 1011.1
20260504214406 80 164 11.0 15.0 0.00 0.00 0.00 62 1011.1
20260504213903 80 149 8.0 13.0 0.00 0.00 0.00 63 1011.1
20260504213359 80 215 4.0 6.0 0.00 0.00 0.00 63 1011.3
20260504212856 80 228 8.0 9.0 0.00 0.00 0.00 63 1011.4
20260504212352 80 145 10.0 14.0 0.00 0.00 0.00 62 1011.6
20260504211850 80 191 10.0 13.0 0.00 0.00 0.00 62 1011.6
20260504211346 80 180 6.0 8.0 0.00 0.00 0.00 62 1011.8
20260504210844 80 197 10.0 13.0 0.00 0.00 0.00 62 1011.9
20260504210340 80 178 4.0 9.0 0.00 0.00 0.00 63 1011.9
20260504205837 81 132 5.0 8.0 0.00 0.00 0.00 62 1012.3
20260504205335 80 187 11.0 14.0 0.00 0.00 0.00 62 1012.2
20260504204833 80 169 12.0 15.0 0.00 0.00 0.00 61 1012.3
20260504204331 80 173 10.0 15.0 0.00 0.00 0.00 62 1012.3
20260504203830 80 195 10.0 10.0 0.00 0.00 0.00 61 1012.3
20260504203327 80 205 5.0 7.0 0.00 0.00 0.00 61 1012.2
20260504202822 79 190 9.0 10.0 0.00 0.00 0.00 61 1012.6
20260504202320 80 131 6.0 7.0 0.00 0.00 0.00 62 1012.7
20260504201817 80 174 7.0 7.0 0.00 0.00 0.00 62 1012.7
20260504201314 80 181 9.0 10.0 0.00 0.00 0.00 60 1012.8
20260504200812 80 192 11.0 15.0 0.00 0.00 0.00 62 1012.9
20260504200308 79 153 11.0 13.0 0.00 0.00 0.00 62 1013.0
20260504195804 80 179 5.0 7.0 0.00 0.00 0.00 63 1013.1
20260504195300 80 198 11.0 13.0 0.00 0.00 0.00 61 1013.1
20260504194757 80 183 8.0 9.0 0.00 0.00 0.00 61 1013.4
20260504194253 79 176 13.0 18.0 0.00 0.00 0.00 62 1013.4
20260504193749 79 148 11.0 15.0 0.00 0.00 0.00 62 1013.7
20260504193247 79 186 4.0 6.0 0.00 0.00 0.00 63 1013.6
20260504192745 78 203 9.0 10.0 0.00 0.00 0.00 63 1013.6
20260504192243 78 184 10.0 13.0 0.00 0.00 0.00 64 1013.9
20260504191742 79 187 5.0 7.0 0.00 0.00 0.00 62 1013.8
20260504191238 78 211 6.0 7.0 0.00 0.00 0.00 64 1014.0
20260504190733 78 199 10.0 14.0 0.00 0.00 0.00 63 1014.1
20260504190230 78 176 12.0 14.0 0.00 0.00 0.00 63 1014.1
20260504185726 78 175 13.0 19.0 0.00 0.00 0.00 64 1014.0
20260504185224 78 151 14.0 18.0 0.00 0.00 0.00 64 1014.2
20260504184720 78 174 14.0 16.0 0.00 0.00 0.00 64 1014.2
20260504184216 77 195 9.0 13.0 0.00 0.00 0.00 65 1014.2
20260504183711 77 172 9.0 14.0 0.00 0.00 0.00 65 1014.4
20260504183209 77 183 8.0 9.0 0.00 0.00 0.00 67 1014.4
20260504182707 77 184 9.0 10.0 0.00 0.00 0.00 66 1014.6
20260504182204 76 181 8.0 8.0 0.00 0.00 0.00 67 1014.7
20260504181701 76 109 6.0 7.0 0.00 0.00 0.00 67 1014.8
20260504181159 76 169 6.0 11.0 0.00 0.00 0.00 68 1014.7
20260504180658 76 135 5.0 8.0 0.00 0.00 0.00 68 1014.9
20260504180156 76 135 6.0 8.0 0.00 0.00 0.00 67 1015.0
20260504175653 75 167 7.0 11.0 0.00 0.00 0.00 68 1014.9
20260504175149 75 179 10.0 11.0 0.00 0.00 0.00 69 1015.2
20260504174648 74 137 12.0 16.0 0.00 0.00 0.00 70 1015.2
20260504174144 74 114 9.0 11.0 0.00 0.00 0.00 70 1015.2
20260504173641 74 195 13.0 17.0 0.00 0.00 0.00 71 1015.5
20260504173138 73 210 7.0 9.0 0.00 0.00 0.00 71 1015.6
20260504172635 73 192 8.0 11.0 0.00 0.00 0.00 72 1015.8
20260504172131 73 121 12.0 15.0 0.00 0.00 0.00 72 1015.7
20260504171628 73 200 10.0 14.0 0.00 0.00 0.00 73 1015.9
20260504171125 73 145 12.0 13.0 0.00 0.00 0.00 72 1016.0
20260504170621 73 210 7.0 11.0 0.00 0.00 0.00 71 1015.8
20260504170119 73 189 9.0 11.0 0.00 0.00 0.00 70 1015.9
20260504151004 69 157 14.0 16.0 0.00 0.00 0.00 75 1016.6
20260504150502 70 163 9.0 11.0 0.00 0.00 0.00 75 1016.5
20260504140928 66 208 7.0 8.0 0.00 0.00 0.00 77 1016.7
20260504140424 66 217 6.0 7.0 0.00 0.00 0.00 77 1016.7
20260504130349 63 115 4.0 6.0 0.00 0.00 0.00 81 1016.6
20260504120312 61 190 2.0 3.0 0.00 0.00 0.00 84 1015.8
20260504110236 61 173 6.0 8.0 0.00 0.00 0.00 82 1016.1
20260504100154 62 147 5.0 6.0 0.00 0.00 0.00 81 1016.5
20260504090117 62 173 10.0 13.0 0.00 0.00 0.00 79 1016.7
20260504081547 63 200 5.0 7.0 0.00 0.00 0.00 77 1016.9
20260504081043 64 212 3.0 3.0 0.00 0.00 0.00 76 1017.0
20260504080540 64 172 8.0 9.0 0.00 0.00 0.00 76 1016.8